Карточка аэропорта UAII

Внимание!
Информация на этой странице в стадии наполнения.
Если вы не увидели какой-то информации, или заметили неточность - пожалуйста сообщите нам!
Спасибо!
Команда RU-STAFF
Название аэропортаШымкент
Название аэропорта (англ.)Shymkent
Превышение1389 ft. (423.4 m.)
Координаты42°21.348', 69°28.734'
Высота перехода10000ft
Эшелон переходаFL120, QNH<733:FL130
Коды ответчика3430-3437, 3530-3537
Зона ОрВДШымкент РПИ (UAII)
Данные METARUAII 270330Z 22003MPS 190V260 CAVOK 17/02 Q1020 NOSIG RMK QFE729/0972
Проноз погоды (TAF)UAII 261702Z 2618/2718 26003G08MPS 7000 SCT040CB TX25/2710Z TN14/2701Z TEMPO 2618/2702 30008G16MPS 3100 -TSRA BLDU SCT011 BKN030CB TEMPO 2703/2713 31006G11MPS
NOTAMshow/hide NOTAM
AWOS   TABLE

Информация о ВПП

ВПП Длина ВПП (м.) Покрытие Курс ВПП Частота ILS
103300Железобетон106111.7
283300Железобетон286110.3

Диспетчерские позиции

Позывной Наименование органа УВД Частота
UAII_TWRШымкент Вышка125.9
UAII_APPШымкент-Подход120.3



Спутниковое изображение